Weather Roundup
Issued by NWS Corpus Christi, TX

Home | Current Version | Previous Version | Text Only | Print | Product List | Glossary On
Versions: 1 2 3 4 5 6 7 8 9 10 11 12 13 14 15 16 17 18 19 20 21 22 23 24 25 26 27 28 29 30 31 32 33 34 35 36 37 38 39 40 41 42 43 44 45 46 47 48 49 50
000
ASUS44 KCRP 240010
HRRCRP

SOUTH TEXAS REGIONAL WEATHER ROUNDUP
NATIONAL WEATHER SERVICE CORPUS CHRISTI TX
600 PM CST SUN NOV 23 2014


TXZ229>244-240100-
...CORPUS CHRISTI AREA OBSERVATIONS...

CITY           SKY/WX    TMP DP  RH WIND       PRES   REMARKS
CORPUS CHRISTI PTCLDY    73  62  68 SW7       29.63R
NAS CORPUS CHR CLEAR     69  66  90 S9        29.63R
ROCKPORT       CLEAR     68  61  78 S6        29.62R
KINGSVILLE NAS CLEAR     72  56  57 S7        29.62R
ALICE          CLEAR     71  51  49 CALM      29.62R
FALFURRIAS     CLEAR     76  52  44 S5        29.62R
$$

...VICTORIA AREA OBSERVATIONS...

CITY           SKY/WX    TMP DP  RH WIND       PRES   REMARKS
VICTORIA       CLEAR     71  55  56 S8        29.60R
BEEVILLE       FAIR      75  46  36 SW3       29.62R
PLEASANTON     CLEAR     73  44  35 SW6       29.62R
SAN ANTONIO    PTCLDY    73  44  35 SW7       29.61R
$$

...LAREDO AREA OBSERVATIONS...

CITY           SKY/WX    TMP DP  RH WIND       PRES   REMARKS
LAREDO         CLEAR     75  49  39 SE3       29.65R
COTULLA        CLEAR     73  49  42 CALM      29.62R
DEL RIO        CLEAR     74  39  28 W12       29.63R
MCALLEN        CLEAR     72  61  68 SE7       29.64S
HEBBRONVILLE   CLEAR     75  50  40 CALM      29.65R
$$

...OTHER TEXAS OBSERVATIONS...

CITY           SKY/WX    TMP DP  RH WIND       PRES   REMARKS
BROWNSVILLE    CLEAR     68  56  65 S6        29.65S
HOUSTON        CLEAR     74  52  46 SW7       29.56R
COL. STATION   CLEAR     69  50  50 SW6       29.55R
AUSTIN         PTCLDY    67  45  45 W3        29.57R
WACO           CLEAR     68  40  35 W9        29.53R
FORT WORTH     PTCLDY    63  43  48 NW25G31   29.54R
WICHITA FALLS  CLOUDY    53  38  56 NW28G41   29.66R
LUBBOCK        MOCLDY    43  28  55 N15G28    29.83R
EL PASO        PTCLDY    61  18  18 W38G47    29.85R
$$

...MARINE OBSERVATIONS...

STATION/POSITION TIME  SKY/WX   TEMP    WIND        PRES    VSBY  WAVE   SWELL
                                AIR SEA DIR/SP/G                  HT/PER HT/PER
                 (UTC)          (F)     (DEG/KT/KT) (MB)    (MI)  (FT/S) (FT/S)
PORT ARANSAS     0000            66 63  170/ 10/ 11 1004.0R
BUOY 90 E PORT A 0000            74 73  200/ 14/ 17 1003.7R         6/ 8   5/ 8
BUOY 45 SE BAFFI 0000            75 74  190/ 12/ 14 1003.4R         5/ 7   5/ 7
BUOY 200 E PT IS 0000            75 75  200/  8/ 10 1005.3R         5/ 7   5/ 7
BUOY 15 E GALVES 0000            65 62  210/ 12/ 14 1002.5R         4/ 8   3/ 8
$$


USA.gov is the U.S. government's official web portal to all federal, state and local government web resources and services.